Regional Weather Roundup
Issued by NWS

Home | Current Version | Previous Version | Text Only | Print | Product List | Glossary On
Versions: 1 2 3 4 5 6 7 8 9 10 11 12 13 14 15 16 17 18 19 20 21 22 23 24 25 26 27 28 29 30 31 32 33 34 35 36 37 38 39 40 41 42 43 44 45 46 47 48 49 50
000
ASUS46 KSTO 262115
RWRCA

NORTHERN AND CENTRAL CA REGIONAL WEATHER ROUNDUP
NATIONAL WEATHER SERVICE SACRAMENTO CA
100 PM PST SUN FEB 26 2017

NOTE: FAIR INDICATES FEW OR NO CLOUDS BELOW 12,000 FEET WITH NO
SIGNIFICANT WEATHER AND/OR OBSTRUCTIONS TO VISIBILITY.

CAZ001-003-262200-
NORTHWEST AREA

CITY           SKY/WX    TMP DP  RH WIND       PRES   REMARKS
CRESCENT CITY  LGT RAIN  43  38  82 NW6       29.89F
UKIAH          CLOUDY    50  38  63 S7        29.93F
$$

CAZ006-505>513-262200-
BAY AREA

CITY           SKY/WX    TMP DP  RH WIND       PRES   REMARKS
SANTA ROSA     PTSUNNY   55  39  54 S7        29.94F
SAN RAFAEL     N/A       53  MM  MM MISG
NAPA           MOSUNNY   57  44  62 SW10      29.96F
CONCORD        SUNNY     59  34  39 VRB7      29.95F
OAKLAND CITY   N/A      MM  MM  MM MISG
OAKLAND        MOSUNNY   56  41  57 W6        29.97F
SAN FRAN CITY  N/A       54  MM  57 MISG
SAN FRAN ARPT  MOSUNNY   56  38  50 W17       29.97F
LIVERMORE      SUNNY     57  34  41 NW6       29.94F
HAYWARD        SUNNY     57  36  45 W7        29.97F
REDWOOD CITY   N/A       55  MM  51 MISG
MOFFETT ARPT   SUNNY     57  37  47 N8        29.97F
SAN JOSE ARPT  MOSUNNY   57  33  40 VRB7      29.96F
$$
CAZ034-037-514>518-262200-
CENTRAL COAST

CITY           SKY/WX    TMP DP  RH WIND       PRES   REMARKS
WATSONVILLE    SUNNY     57  41  55 SW10      29.97F
SALINAS        SUNNY     56  38  50 CALM      29.96F
MONTEREY       SUNNY     57  39  51 NW9       29.97F
SAN LUIS OBISP CLOUDY    60  43  53 SW9       29.94F
SANTA MARIA    PTSUNNY   56  44  64 VRB5      29.95F
$$
CAZ015-016-262200-
NORTHERN SACRAMENTO VALLEY

CITY           SKY/WX    TMP DP  RH WIND       PRES   REMARKS
REDDING        MOSUNNY   52  33  48 S17       29.85F
RED BLUFF      SUNNY     52  34  50 S16       29.88F
OROVILLE       SUNNY     56  35  45 S17       29.92F
$$
CAZ016>018-262200-
SOUTHERN SACRAMENTO VALLEY

CITY           SKY/WX    TMP DP  RH WIND       PRES   REMARKS
AUBURN         SUNNY     50  32  50 SW10      29.93F
BEALE AFB      SUNNY     56  34  43 S16       29.91F
LINCOLN        FAIR      55  30  38 S12G17    29.93F
MARYSVILLE     SUNNY     55  36  48 SE17      29.93F
SAC INTL ARPT  SUNNY     55  39  54 S16       29.94F
MATHER AIRPORT SUNNY     55  36  47 S8        29.96F
DOWNTOWN SAC   N/A       58  MM  MM MISG
SAC EXEC ARPT  SUNNY     56  37  49 SW9       29.95F
VACAVILLE      PTSUNNY   59  38  45 SW12      29.94F
TRAVIS AFB     SUNNY     55  41  58 SW16      29.93F
$$
CAZ019>021-262200-
SAN JOAQUIN VALLEY

CITY           SKY/WX    TMP DP  RH WIND       PRES   REMARKS
STOCKTON       SUNNY     57  35  43 S3        29.95F
MODESTO        SUNNY     57  35  43 SE8       29.96F
MERCED         SUNNY     55  37  50 SE6       29.95F
LEMOORE        MOSUNNY   55  37  50 CALM      29.98F
FRESNO         MOSUNNY   54  36  50 SW3       29.98F
HANFORD        MOSUNNY   55  38  52 SE5       29.98F
PORTERVILLE    SUNNY     56  38  50 VRB6      29.96F
BAKERSFIELD    MOSUNNY   55  39  54 MISG      29.95F
$$
CAZ011-012-071-262200-
NORTHERN MOUNTAINS

CITY           SKY/WX    TMP DP  RH WIND       PRES   REMARKS
YREKA          MOSUNNY   43  28  55 SW12      29.73F
MOUNT SHASTA   CLOUDY    38  23  55 CALM      29.74F
ALTURAS        PTSUNNY   34  17  50 SW18G28   29.70F WCI  23
$$
CAZ011-012-071-262200-
SIERRA NEVADA MTNS

CITY           SKY/WX    TMP DP  RH WIND       PRES   REMARKS
BLUE CANYON    CLOUDY    31  24  75 S8G20     29.84F WCI  23
TRUCKEE        PTSUNNY   30  30 100 SW12G22   29.79F WCI  21
TAHOE VLY ARPT MOSUNNY   33  16  49 VRB7G23   29.77F WCI  27
MAMMOTH LAKES  FAIR      30  18  60 N3        29.81F
$$




USA.gov is the U.S. government's official web portal to all federal, state and local government web resources and services.